Preview of NWS' New Version of Forecast
This preview is not operational and should not be used for support decisions.

Regional Weather Roundup (RWR)

Issued by National Weather Service (NWS)

                            
000
ASUS42 KTBW 181918
RWRFL 
FLORIDA REGIONAL WEATHER ROUNDUP
NATIONAL WEATHER SERVICE TAMPA BAY RUSKIN FL
300 PM EDT THU JUL 18 2019

NOTE: "FAIR" INDICATES FEW OR NO CLOUDS BELOW 12,000 FEET WITH NO
SIGNIFICANT WEATHER AND/OR OBSTRUCTIONS TO VISIBILITY.

FLZ001>010-012>015-112-114-115-182000-
PANHANDLE FLORIDA
  
CITY           SKY/WX    TMP DP  RH WIND       PRES   REMARKS
PENSACOLA      FAIR      91  75  59 S15       30.08S HX 101           
PENSACOLA NAS  PTSUNNY   91  78  65 S14       30.08S HX 106           
MILTON NAS     PTSUNNY   92  71  50 S8        30.06F HX  98           
CRESTVIEW      FAIR      94  71  47 VRB7      30.07F HX 101           
DUKE FIELD     FAIR      92  72  51 S12       30.06F HX 100           
VALPARAISO     PTSUNNY   91  73  55 S15       30.07F HX  98           
MARY ESTHER    PTSUNNY   90  74  59 S10       30.06F HX 100           
TRI COUNTY     FAIR      94  75  54 VRB6      30.05F HX 105           
PANAMA CITY    FAIR      92  73  53 SE12      30.06F HX 100           
TYNDALL AFB    FAIR      89  79  71 W10       30.06F HX 105           
APALACHICOLA   FAIR      89  75  63 S10       30.09S HX  99           

STATION/POSITION SKY/WX   TEMP    WIND        PRES    WAVE   SWELL
                          AIR SEA DIR/SP/G            HT/PER HT/PER
                          (F)     (DEG/KT/KT) (MB)    (FT/S) (FT/S)
30.1N   87.6W              86 87  220/  4/  8 1019.0F   1/ 5   2/ 5
29.2N   88.2W              85 86  280/  2/  2 1019.0F   1/ 6   2/ 6
28.8N   86.0W              85 87  200/  4/  6 1018.8F   1/ 6   2/ 6
PANAMA CITY BEAC           85 86  230/  9/ 10 1019.1F
TOWER C                    84     220/  4/  4 1019.1F
28.5N   84.5W              85     140/  4/  6 1019.3F   1/ 4   2/ 5

$$
FLZ011-016>038-118-127-128-134-139-239-182000-
NORTH FLORIDA
  
CITY           SKY/WX    TMP DP  RH WIND       PRES   REMARKS
MARIANNA       FAIR      94  75  54 SW9       30.04F HX 105           
TALLAHASSEE    PTSUNNY   92  74  55 SE9       30.06F HX 101           
LIVE OAK       PTSUNNY   90  75  62 S10G17    30.07F HX 100           
GAINESVILLE    FAIR      91  69  48 S8        30.11F HX  96           
WILLISTON      FAIR      90  71  53 CALM      30.09F HX  97           
PALATKA        FAIR      90  73  58 SW3       30.09S HX  98           
MAYPORT NAS    CLOUDY    91  74  57 SE13      30.07F HX 100           
JACKSONVILLE   PTSUNNY   93  74  53 VRB7      30.05F HX 103           
JAX NAS        PTSUNNY   93  70  46 S9        30.07F HX  99           
JAX CECIL      PTSUNNY   95  75  52 VRB5      30.07F HX 107           
ST AUGUSTINE   FAIR      91  70  49 E8        30.08F HX  96           
PALM COAST     SUNNY     86  75  70 SW5       30.09F HX  95           

STATION/POSITION SKY/WX   TEMP    WIND        PRES    WAVE   SWELL
                          AIR SEA DIR/SP/G            HT/PER HT/PER
                          (F)     (DEG/KT/KT) (MB)    (FT/S) (FT/S)
SHELL POINT      NOT AVBL
KEATON BEACH               85     210/  7/  9 1018.9F
CEDAR KEY                  86     210/  6/  7 1019.1F
FERNANDINA                 93 86  120/  6/ 11 1019.0
30.7N   81.3W                 84                N/A     2/11
MAYPORT                    88 83  140/ 10/ 12 1018.9
31.4N   80.9W              83 85  200/ 14/ 17 1017.8F   2/ 3   2/ 8
ST AUGUSTINE               82 82  130/  7/  8 1018.9F

$$
FLZ040-043>046-052-053-057-058-063-144-182000-
INTERIOR CENTRAL FLORIDA
  
CITY           SKY/WX    TMP DP  RH WIND       PRES   REMARKS
OCALA          FAIR      89  73  59 SW7       30.10F HX  97           
LEESBURG       FAIR      88  75  65 NW5       30.10S HX  97           
SANFORD        FAIR      87  75  67 E10       30.07F THUNDER HX  96   
ORLANDO EXEC   PTSUNNY   91  71  51 SW10      30.07F HX  97           
ORLANDO INTL   PTSUNNY   90  72  55 S8        30.08F HX  97           
KISSIMMEE      FAIR      91  74  57 SE13      30.09F HX 100           
WINTER HAVEN   CLOUDY    90  73  57 SW3       30.09F HX  98           
LAKELAND       MOSUNNY   90  72  55 W6        30.09F HX  96           
BARTOW         PTSUNNY   90  73  58 S6        30.08F HX  98           

$$
FLZ041-047-054-059-064-141-147-182000-
EAST CENTRAL FLORIDA
  
CITY           SKY/WX    TMP DP  RH WIND       PRES   REMARKS
ORMOND BEACH   MOSUNNY   90  75  62 E6        30.08F HX 100           
DAYTONA BEACH  PTSUNNY   87  76  69 E8        30.08F HX  97           
NEW SMYRNA BEA MOSUNNY   90  72  55 E12       30.10S HX  96           
JFK SPACE CTR  FAIR      86  62  44 SE7       30.10R                  
TITUSVILLE     PTSUNNY   90  73  58 SE7       30.10F HX  98           
CAPE CANAVERAL PTSUNNY   86  53  31 SE10      30.09S                  
PATRICK AFB    FAIR      88  78  73 SE9       30.10S HX 102           
MELBOURNE      FAIR      87  76  69 SE14      30.09F HX  97           
VERO BEACH     FAIR      84  73  69 SE13      30.10F                  
FT PIERCE      FAIR      82  73  74 SE12      30.11S                  
STUART         PTSUNNY   82  73  74 CALM      30.12F                  

STATION/POSITION SKY/WX   TEMP    WIND        PRES    WAVE   SWELL
                          AIR SEA DIR/SP/G            HT/PER HT/PER
                          (F)     (DEG/KT/KT) (MB)    (FT/S) (FT/S)
28.5N   80.2W              83 86  130/ 10/ 12 1019.3F   1/ 8   2/ 8
28.9N   78.5W              85 86  180/  8/ 10   N/A
TRIDENT PIER               85 84  130/  7/  9 1020.6
28.4N   80.5W                 82                N/A     1/ 7
27.5N   80.2W                 82                N/A     1/ 7

$$
FLZ050-056-061-142-242-148-248-149-249-151-251-155-255-
160-260-182000-
WEST CENTRAL FLORIDA
  
CITY           SKY/WX    TMP DP  RH WIND       PRES   REMARKS
CRYSTAL RIVER  FAIR      90  73  58 W6        30.09F HX  98           
INVERNESS      FAIR      88  73  62 CALM      30.10F HX  96           
BROOKSVILLE    FAIR      91  75  59 W9        30.10F HX 101           
CLEARWATER AIR FAIR      86  72  62 W6        30.09S                  
ST PETE CLEARW FAIR      87  69  54 W9        30.09F                  
TAMPA INTL     FAIR      92  67  43 W7        30.09F HX  95           
TAMPA EXEC     FAIR      91  72  52 CALM      30.09F HX  98           
PLANT CITY     CLOUDY   N/A N/A N/A MISG      30.10F                  
MACDILL AFB    FAIR      91  73  55 NW7       30.08F HX  99           
PETER O KNIGHT FAIR      91  73  55 W5        30.09S HX 100           
ST PETERSBURG  FAIR      88  73  61 CALM      30.07F HX  95           
SARASOTA       FAIR      88  76  67 SE13      30.08S HX  99           
VENICE         FAIR      90  77  66 SW10      30.09S HX 102           

STATION/POSITION SKY/WX   TEMP    WIND        PRES    WAVE   SWELL
                          AIR SEA DIR/SP/G            HT/PER HT/PER
                          (F)     (DEG/KT/KT) (MB)    (FT/S) (FT/S)
27.3N   84.2W                 89                N/A     1/ 4
CLEARWATER BEACH           85 89  250/  7/  9 1019.4F
MIDDLE TAMPA BAY           85     270/  6/  7 1019.2
VENICE                     86 86  220/ 10/ 11 1018.9F

$$
FLZ066-069-070-075>078-162-262-165-265-182000-
SOUTHWEST FLORIDA AND KEYS
  
CITY           SKY/WX    TMP DP  RH WIND       PRES   REMARKS
PUNTA GORDA    FAIR      93  70  46 S12       30.10F HX  99           
FT MYERS       FAIR      79  69  71 SW12      30.09F                  
SOUTHWEST INTL FAIR      78  69  73 SW10      30.12R                  
MARCO ISLAND   LGT RAIN  76  74  93 MISG      30.12F                  
IMMOKALEE      FAIR      77  70  78 SW6G12    30.11F                  
MARATHON       FAIR      91  75  59 SE5       30.08S HX 101           
KEY WEST NAS   PTSUNNY   91  75  59 E6        30.08S HX 101           
KEY WEST INTL  FAIR      88  75  65 SE6       30.08F HX  97           

STATION/POSITION SKY/WX   TEMP    WIND        PRES    WAVE   SWELL
                          AIR SEA DIR/SP/G            HT/PER HT/PER
                          (F)     (DEG/KT/KT) (MB)    (FT/S) (FT/S)
NAPLES                     76 87              1021.2
26.0N   85.6W              85 86   90/  8/ 10 1018.4F   2/ 5   2/ 5
DRY TORTUGAS               85     120/  4/  5 1018.9F
SAND KEY                   86     120/  7/  9 1017.6F
SOMBRERO KEY               85     110/  6/  7 1018.9F
LONG KEY                   87                 1018.0

$$
FLZ067-068-071>074-168-172>174-182000-
SOUTHEAST FLORIDA 
  
CITY           SKY/WX    TMP DP  RH WIND       PRES   REMARKS
W PALM BEACH   PTSUNNY   83  74  74 NW9       30.10F                  
FT LAUDER-EXEC FAIR      87  71  58 SW3       30.09F                  
FT LAUDERDALE  PTSUNNY   86  74  67 SE6       30.09F                  
POMPANO BEACH  FAIR      87  73  62 VRB6      30.09F                  
PEMBROKE PINES FAIR      87  73  62 NE6       30.11S                  
OPA LOCKA      FAIR      87  75  67 E8        30.10S HX  96           
MIAMI          PTSUNNY   88  73  61 E7G18     30.10R HX  95           
WEST KENDALL   FAIR      91  73  55 E7        30.08S HX  99           
HOMESTEAD      FAIR      89  76  65 E7        30.08S HX 100           

STATION/POSITION SKY/WX   TEMP    WIND        PRES    WAVE   SWELL
                          AIR SEA DIR/SP/G            HT/PER HT/PER
                          (F)     (DEG/KT/KT) (MB)    (FT/S) (FT/S)
PORT EVERGLADES            84     150/  3/  5 1019.3
VIRGINIA KEY               85 89  100/  4/  5 1018.7F
LAKE WORTH                 82 86  170/  9/ 11 1020.7
FOWEY ROCKS                85 85  110/  5/  6 1019.3F
SETTLEMENT POINT           84      40/  2/  3 1019.4F

$$